STARLINK-35900

Last updated on Fri Dec 19 2025 00:02:08 GMT+0000 (Coordinated Universal Time)

1 66886U 25283J 25352.58336806 -.01350179 00000+0 -84243-2 0 9990 2 66886 53.1553 44.4115 0001227 63.6259 72.5999 15.78782860 3365
UTC large
Height (km)
Speed (km/s)
/
Latitude / Longitude
Inclination (degrees)
Orbital Period (minutes)
Azimuth
Elevation
Range (km)
Doppler Factor

Next 0 passes for location: London (51.5072 / 0.1276)

Sorry there are no passes over London.